Location: Unspecified
(44.8689°S, 0.0000°E)
Time: 01:30:56
(UTC+00:00)

Injun/Solrad 3 - Visible Passes

Search period start: 04 April 2026 00:00
Search period end: 14 April 2026 00:00
Orbit: 870 x 986 km, 66.8° (Epoch: 29 March)

Date Brightness Start Highest point End Pass type
(mag) Time Alt. Az. Time Alt. Az. Time Alt. Az.
4 Apr 9.1 20:02:41 10° SSW 20:07:18 25° SE 20:07:18 25° SE visible
4 Apr 9.8 21:48:44 10° SW 21:50:56 23° SW 21:50:56 23° SW visible
5 Apr 9.9 18:28:31 10° S 18:30:27 11° SSE 18:32:22 10° SE visible
5 Apr 8.9 20:13:31 10° SSW 20:18:04 32° SSE 20:18:04 32° SSE visible
5 Apr 10.1 21:59:55 10° SW 22:01:41 20° SW 22:01:41 20° SW visible
6 Apr 9.7 18:39:01 10° S 18:42:07 14° SSE 18:45:10 10° ESE visible
6 Apr 8.6 20:24:24 10° SSW 20:28:51 40° SSE 20:28:51 40° SSE visible
6 Apr 10.3 22:11:16 10° SW 22:12:29 16° SW 22:12:29 16° SW visible
7 Apr 9.4 18:49:41 10° S 18:53:41 18° SSE 18:56:03 14° ESE visible
7 Apr 8.5 20:35:22 10° SSW 20:39:42 47° S 20:39:42 47° S visible
7 Apr 10.6 22:22:53 10° WSW 22:23:19 12° WSW 22:23:19 12° WSW visible
8 Apr 9.1 19:00:27 10° SSW 19:05:10 23° SE 19:06:56 20° ESE visible
8 Apr 8.6 20:46:23 10° SSW 20:50:34 47° SW 20:50:34 47° SW visible
9 Apr 8.7 19:11:16 10° SSW 19:16:33 31° SE 19:17:52 28° ESE visible
9 Apr 8.9 20:57:31 10° SW 21:01:30 40° WSW 21:01:30 40° WSW visible
10 Apr 8.2 19:22:08 10° SSW 19:27:49 42° SE 19:28:52 39° ESE visible
10 Apr 9.4 21:08:48 10° SW 21:12:30 31° WSW 21:12:30 31° WSW visible
11 Apr 7.8 19:33:04 10° SSW 19:39:00 60° SE 19:39:56 53° E visible
11 Apr 9.8 21:20:19 10° SW 21:23:35 22° W 21:23:35 22° W visible
12 Apr 9.2 17:58:13 10° SSW 18:02:42 21° SE 18:07:05 10° E visible
12 Apr 7.7 19:44:04 10° SSW 19:50:05 86° ESE 19:51:06 63° NE visible
12 Apr 10.2 21:32:18 10° WSW 21:34:45 15° W 21:34:45 15° W visible
13 Apr 8.8 18:09:00 10° SSW 18:14:06 28° SE 18:18:42 12° E visible
13 Apr 8.0 19:55:09 10° SW 20:01:04 65° WNW 20:02:22 51° N visible
